Location: Bégole
(43.1574°N, 0.3291°E)
Time: 00:53:12
(UTC+00:00)

deb Delta 89 - Pass Details

Date: 01 March 2024
Orbit: 714 x 2021 km, 97.5° (Epoch: 13 April)

Event Time Altitude Azimuth Distance (km) Brightness Sun altitude
Rises 02:07:15 0° 12° (NNE) 5,487 ? -46.1°
Reaches altitude 10° 02:10:39 10° 15° (NNE) 4,467 ? -45.7°
Enters shadow 02:20:49 67° 62° (ENE) 1,989 ? -44.3°
